Martha's Vineyard, MA

8:49 AM EDT on April 29, 2017 (GMT -0400)
Martha's Vineyard

Weather History for KMVY - August, 2013

Change the Weather History Date:

Sunday, August 18, 2013

  Actual Average Record
Temperature  
Mean Temperature 65 °F -  
Max Temperature 79 °F 78 °F 87 °F (1955)
Min Temperature 52 °F 62 °F 46 °F (2005)
Growing Degree Days 15 (Base 50)    
Moisture  
Dew Point 57 °F    
Average Humidity 78    
Maximum Humidity 93    
Minimum Humidity 50    
Precipitation  
Precipitation 0.09 in - - ()
Sea Level Pressure  
Sea Level Pressure 30.22 in    
Wind  
Wind Speed 2 mph (ESE)    
Max Wind Speed 8 mph    
Max Gust Speed -    
Visibility 10 miles    
Events Rain    
Averages and records for this station are not official NWS values.
T = Trace of Precipitation, MM = Missing Value Source: NWS Daily Summary

Daily Weather History Graph

Daily Weather History Graph

Search for Another Location

Airport or City:

Trip Planner

Search our weather history database for the weather conditions in past years. The results will help you decide how hot, cold, wet, or windy it might be!

Date:

Astronomy

Aug. 18, 2013 Rise Set
Actual Time 5:54 AM EDT 7:36 PM EDT
Civil Twilight 5:25 AM EDT 8:06 PM EDT
Nautical Twilight 4:49 AM EDT 8:41 PM EDT
Astronomical Twilight 4:11 AM EDT 9:19 PM EDT
Moon 5:41 PM EDT (8/18) 2:59 AM EDT (8/18)
Length of Visible Light 14h 41m
Length of Day
13h 42m
Waxing Gibbous, 92% of the Moon is Illuminated
Aug 18
Waxing Gibbous
Aug 20
Full
Aug 28
Last Quarter
Sep 5
New
Sep 12
First Quarter

Hourly Weather History & Observations

Time (EDT) Temp. Dew Point Humidity Pressure Visibility Wind Dir Wind Speed Gust Speed Precip Events Conditions
12:53 AM 52.0 °F 48.9 °F 89% 30.28 in 10.0 mi Calm Calm - N/A   Clear
1:53 AM 53.1 °F 50.0 °F 89% 30.27 in 10.0 mi Calm Calm - N/A   Clear
2:53 AM 52.0 °F 50.0 °F 93% 30.27 in 10.0 mi NNW 3.5 mph - N/A   Clear
3:53 AM 54.0 °F 52.0 °F 93% 30.26 in 10.0 mi Calm Calm - N/A   Clear
4:53 AM 54.0 °F 51.1 °F 90% 30.27 in 10.0 mi Calm Calm - N/A   Clear
5:53 AM 54.0 °F 52.0 °F 93% 30.27 in 10.0 mi Calm Calm - N/A   Clear
6:53 AM 55.9 °F 54.0 °F 93% 30.28 in 10.0 mi Calm Calm - N/A   Clear
7:53 AM 68.0 °F 63.0 °F 84% 30.27 in 10.0 mi Calm Calm - N/A   Clear
8:53 AM 73.0 °F 64.9 °F 76% 30.27 in 10.0 mi ESE 4.6 mph - N/A   Clear
9:53 AM 75.0 °F 62.1 °F 64% 30.27 in 10.0 mi Variable 4.6 mph - N/A   Clear
10:53 AM 78.1 °F 57.9 °F 50% 30.27 in 10.0 mi SE 8.1 mph - N/A   Clear
11:53 AM 75.9 °F 57.9 °F 54% 30.26 in 10.0 mi SSE 8.1 mph - N/A   Clear
12:53 PM 73.0 °F 57.9 °F 59% 30.25 in 10.0 mi SSE 5.8 mph - N/A   Clear
1:53 PM 72.0 °F 59.0 °F 64% 30.24 in 10.0 mi Calm Calm - N/A   Partly Cloudy
2:53 PM 75.0 °F 57.0 °F 53% 30.22 in 10.0 mi SE 4.6 mph - 0.00 in   Clear
3:53 PM 72.0 °F 55.9 °F 57% 30.19 in 10.0 mi SE 5.8 mph - 0.00 in Rain Light Rain
4:53 PM 70.0 °F 57.9 °F 65% 30.17 in 10.0 mi East 3.5 mph - 0.00 in Rain Light Rain
5:53 PM 68.0 °F 59.0 °F 73% 30.16 in 10.0 mi Calm Calm - 0.01 in Rain Light Rain
6:53 PM 66.0 °F 62.1 °F 87% 30.14 in 10.0 mi NNE 4.6 mph - 0.01 in Rain Light Rain
7:53 PM 64.9 °F 61.0 °F 87% 30.14 in 10.0 mi ESE 4.6 mph - 0.01 in   Overcast
8:53 PM 64.9 °F 61.0 °F 87% 30.13 in 10.0 mi ESE 5.8 mph - 0.01 in Rain Light Rain
9:53 PM 64.0 °F 61.0 °F 90% 30.12 in 10.0 mi SE 3.5 mph - 0.04 in Rain Light Rain
10:53 PM 63.0 °F 60.1 °F 90% 30.11 in 10.0 mi Calm Calm - 0.01 in   Partly Cloudy
11:53 PM 62.1 °F 57.0 °F 84% 30.10 in 10.0 mi SSE 3.5 mph - N/A   Partly Cloudy